DLH500 EGLL-EDDF

Flight info

Callsign DLH500
Flight time 0h 56m
Altitude 35000
Route DET L6 DVR UL9 KONAN UL607 SPI T180 NIVNU T847 IMCOM IMCOM1D
Aircraft A359/H-SDE2E3GHIJ3J4J5LM1ORWXY/LB1D1

Departure

Time 2026-04-17 06:06
Airport London Heathrow Airport (EGLL)

Arrival

Time 2026-04-17 07:03
Airport Frankfurt Main Airport (EDDF)
Time Latitude Longitude Altitude Speed Heading
2026-04-17 04:01 51.47163 -0.46191 92 ft 0 kts 56°
2026-04-17 05:53 51.47160 -0.46196 92 ft 3 kts 56°
2026-04-17 05:53 51.47145 -0.46231 93 ft 4 kts 56°
2026-04-17 05:53 51.47130 -0.46265 92 ft 4 kts 39°
2026-04-17 05:53 51.47117 -0.46277 92 ft 4 kts
2026-04-17 05:54 51.47097 -0.46268 93 ft 2 kts 326°
2026-04-17 05:54 51.47076 -0.46245 93 ft 4 kts 326°
2026-04-17 05:54 51.47072 -0.46240 92 ft 0 kts 326°
2026-04-17 05:57 51.47072 -0.46241 92 ft 1 kts 325°
2026-04-17 05:57 51.47104 -0.46277 96 ft 9 kts 325°
2026-04-17 05:57 51.47165 -0.46344 96 ft 12 kts 325°
2026-04-17 05:58 51.47224 -0.46414 96 ft 10 kts 314°
2026-04-17 05:58 51.47238 -0.46528 92 ft 12 kts 270°
2026-04-17 05:58 51.47237 -0.46656 94 ft 10 kts 270°
2026-04-17 05:59 51.47365 -0.46726 92 ft 13 kts 358°
2026-04-17 05:59 51.47451 -0.46753 95 ft 13 kts 343°
2026-04-17 05:59 51.47507 -0.46719 95 ft 10 kts 63°
2026-04-17 05:59 51.47515 -0.46603 94 ft 12 kts 89°
2026-04-17 06:00 51.47516 -0.46460 92 ft 14 kts 90°
2026-04-17 06:00 51.47516 -0.46295 92 ft 16 kts 89°
2026-04-17 06:00 51.47517 -0.46109 92 ft 18 kts 90°
2026-04-17 06:00 51.47518 -0.45899 92 ft 17 kts 90°
2026-04-17 06:01 51.47512 -0.45735 95 ft 16 kts 97°
2026-04-17 06:01 51.47509 -0.45552 96 ft 17 kts 90°
2026-04-17 06:01 51.47509 -0.45347 96 ft 19 kts 90°
2026-04-17 06:01 51.47510 -0.45122 97 ft 21 kts 90°
2026-04-17 06:02 51.47510 -0.44879 96 ft 23 kts 90°
2026-04-17 06:02 51.47512 -0.44687 96 ft 14 kts 90°
2026-04-17 06:02 51.47503 -0.44524 95 ft 16 kts 89°
2026-04-17 06:02 51.47504 -0.44337 95 ft 18 kts 90°
2026-04-17 06:03 51.47504 -0.44129 96 ft 19 kts 90°
2026-04-17 06:03 51.47506 -0.43921 95 ft 15 kts 89°
2026-04-17 06:03 51.47493 -0.43781 97 ft 12 kts 123°
2026-04-17 06:03 51.47456 -0.43677 92 ft 11 kts 92°
2026-04-17 06:04 51.47454 -0.43543 94 ft 13 kts 90°
2026-04-17 06:04 51.47460 -0.43385 94 ft 15 kts 78°
2026-04-17 06:04 51.47519 -0.43263 95 ft 12 kts 23°
2026-04-17 06:04 51.47608 -0.43255 95 ft 14 kts 356°
2026-04-17 06:05 51.47687 -0.43311 98 ft 8 kts 319°
2026-04-17 06:05 51.47718 -0.43353 98 ft 6 kts 326°
2026-04-17 06:05 51.47759 -0.43378 98 ft 5 kts 316°
2026-04-17 06:05 51.47765 -0.43457 97 ft 13 kts 272°
2026-04-17 06:06 51.47767 -0.43913 94 ft 76 kts 269°
2026-04-17 06:06 51.47762 -0.45105 95 ft 136 kts 270°
2026-04-17 06:06 51.47756 -0.46847 383 ft 160 kts 267°
2026-04-17 06:06 51.47700 -0.48583 1171 ft 155 kts 258°
2026-04-17 06:07 51.47083 -0.49863 1892 ft 146 kts 204°
2026-04-17 06:07 51.46085 -0.49830 2419 ft 151 kts 168°
2026-04-17 06:07 51.45018 -0.49276 2651 ft 171 kts 167°
2026-04-17 06:07 51.43837 -0.48541 2898 ft 195 kts 158°
2026-04-17 06:08 51.42613 -0.47443 3219 ft 212 kts 154°
2026-04-17 06:08 51.41304 -0.46204 3546 ft 231 kts 154°
2026-04-17 06:08 51.39841 -0.44854 3931 ft 247 kts 154°
2026-04-17 06:08 51.38326 -0.43478 4545 ft 252 kts 154°
2026-04-17 06:09 51.36784 -0.42094 5185 ft 257 kts 154°
2026-04-17 06:09 51.35213 -0.40694 5758 ft 260 kts 154°
2026-04-17 06:09 51.33629 -0.39276 5987 ft 261 kts 153°
2026-04-17 06:09 51.32190 -0.37450 5995 ft 269 kts 134°
2026-04-17 06:10 51.31340 -0.34764 5996 ft 277 kts 105°
2026-04-17 06:10 51.31378 -0.31673 6000 ft 282 kts 77°
2026-04-17 06:10 51.31742 -0.28587 5995 ft 283 kts 88°
2026-04-17 06:10 51.31797 -0.25494 5994 ft 282 kts 93°
2026-04-17 06:11 51.31774 -0.22367 6086 ft 282 kts 93°
2026-04-17 06:11 51.31733 -0.19214 6599 ft 285 kts 94°
2026-04-17 06:11 51.31690 -0.16044 7280 ft 286 kts 93°
2026-04-17 06:11 51.31646 -0.12830 7878 ft 291 kts 94°
2026-04-17 06:12 51.31598 -0.09568 8466 ft 296 kts 94°
2026-04-17 06:12 51.31548 -0.06251 9063 ft 300 kts 93°
2026-04-17 06:12 51.31499 -0.02885 9652 ft 305 kts 93°
2026-04-17 06:12 51.31447 0.00532 10145 ft 309 kts 94°
2026-04-17 06:13 51.31392 0.04031 10457 ft 322 kts 94°
2026-04-17 06:13 51.31334 0.07633 10669 ft 336 kts 94°
2026-04-17 06:13 51.31272 0.11451 10897 ft 350 kts 94°
2026-04-17 06:13 51.31208 0.15402 11119 ft 362 kts 94°
2026-04-17 06:14 51.31141 0.19495 11309 ft 374 kts 94°
2026-04-17 06:14 51.31070 0.23702 11658 ft 381 kts 94°
2026-04-17 06:14 51.30997 0.27951 12120 ft 384 kts 94°
2026-04-17 06:14 51.30922 0.32242 12568 ft 387 kts 94°
2026-04-17 06:15 51.30845 0.36554 13034 ft 390 kts 94°
2026-04-17 06:15 51.30766 0.40901 13490 ft 393 kts 94°
2026-04-17 06:15 51.30684 0.45288 13937 ft 395 kts 94°
2026-04-17 06:15 51.30601 0.49701 14321 ft 398 kts 94°
2026-04-17 06:16 51.30515 0.54147 14738 ft 402 kts 94°
2026-04-17 06:16 51.30383 0.58560 15164 ft 403 kts 98°
2026-04-17 06:16 51.29907 0.62984 15594 ft 404 kts 105°
2026-04-17 06:16 51.29209 0.67342 16023 ft 406 kts 108°
2026-04-17 06:17 51.28400 0.71679 16461 ft 408 kts 110°
2026-04-17 06:17 51.27550 0.76015 16882 ft 411 kts 110°
2026-04-17 06:17 51.26691 0.80385 17321 ft 414 kts 110°
2026-04-17 06:17 51.25839 0.84793 17749 ft 417 kts 110°
2026-04-17 06:18 51.24996 0.89229 18172 ft 419 kts 109°
2026-04-17 06:18 51.24155 0.93718 18575 ft 422 kts 109°
2026-04-17 06:18 51.23317 0.98227 18940 ft 425 kts 109°
2026-04-17 06:18 51.22477 1.02758 19278 ft 427 kts 109°
2026-04-17 06:19 51.21630 1.07320 19625 ft 430 kts 109°
2026-04-17 06:19 51.20775 1.11911 19964 ft 432 kts 109°
2026-04-17 06:19 51.19927 1.16450 20278 ft 434 kts 109°
2026-04-17 06:19 51.19058 1.21082 20611 ft 436 kts 109°
2026-04-17 06:20 51.18184 1.25729 20942 ft 439 kts 110°
2026-04-17 06:20 51.17305 1.30390 21273 ft 441 kts 110°
2026-04-17 06:20 51.16533 1.35136 21575 ft 446 kts 103°
2026-04-17 06:20 51.16098 1.40053 21886 ft 449 kts 99°
2026-04-17 06:21 51.15780 1.45010 22210 ft 451 kts 97°
2026-04-17 06:21 51.15524 1.49999 22548 ft 453 kts 96°
2026-04-17 06:21 51.15294 1.55022 22841 ft 455 kts 96°
2026-04-17 06:21 51.15072 1.60003 23126 ft 457 kts 96°
2026-04-17 06:22 51.14841 1.65071 23412 ft 460 kts 96°
2026-04-17 06:22 51.14600 1.70166 23702 ft 462 kts 96°
2026-04-17 06:22 51.14351 1.75285 23954 ft 464 kts 96°
2026-04-17 06:22 51.14094 1.80407 24197 ft 466 kts 96°
2026-04-17 06:23 51.13832 1.85562 24451 ft 467 kts 96°
2026-04-17 06:23 51.13565 1.90732 24694 ft 468 kts 96°
2026-04-17 06:23 51.13296 1.95901 25033 ft 468 kts 96°
2026-04-17 06:23 51.13026 2.01067 25275 ft 470 kts 96°
2026-04-17 06:24 51.12755 2.06268 25501 ft 472 kts 96°
2026-04-17 06:24 51.12477 2.11490 25751 ft 474 kts 96°
2026-04-17 06:24 51.12195 2.16726 26012 ft 476 kts 96°
2026-04-17 06:24 51.11912 2.21917 26258 ft 478 kts 96°
2026-04-17 06:25 51.11622 2.27199 26531 ft 480 kts 96°
2026-04-17 06:25 51.11329 2.32515 26803 ft 482 kts 96°
2026-04-17 06:25 51.11033 2.37830 27074 ft 484 kts 96°
2026-04-17 06:25 51.10733 2.43182 27396 ft 485 kts 96°
2026-04-17 06:26 51.10430 2.48557 27697 ft 487 kts 96°
2026-04-17 06:26 51.10124 2.53942 27993 ft 490 kts 96°
2026-04-17 06:26 51.09818 2.59282 28291 ft 492 kts 96°
2026-04-17 06:26 51.09366 2.64756 28597 ft 494 kts 103°
2026-04-17 06:27 51.08579 2.70002 28908 ft 495 kts 106°
2026-04-17 06:27 51.07682 2.75311 29214 ft 498 kts 107°
2026-04-17 06:27 51.06733 2.80625 29524 ft 500 kts 108°
2026-04-17 06:27 51.05759 2.85937 29849 ft 502 kts 108°
2026-04-17 06:28 51.04769 2.91286 30212 ft 504 kts 108°
2026-04-17 06:28 51.03777 2.96640 30494 ft 507 kts 107°
2026-04-17 06:28 51.02781 3.02030 30772 ft 509 kts 107°
2026-04-17 06:28 51.01779 3.07450 31054 ft 511 kts 107°
2026-04-17 06:29 51.00776 3.12883 31335 ft 513 kts 108°
2026-04-17 06:29 50.99767 3.18340 31609 ft 515 kts 108°
2026-04-17 06:29 50.98753 3.23812 31884 ft 517 kts 108°
2026-04-17 06:29 50.97734 3.29293 32132 ft 519 kts 108°
2026-04-17 06:30 50.96707 3.34800 32387 ft 521 kts 107°
2026-04-17 06:30 50.95686 3.40253 32626 ft 522 kts 107°
2026-04-17 06:30 50.94683 3.45604 32855 ft 524 kts 107°
2026-04-17 06:30 50.93977 3.49358 33044 ft 525 kts 108°
2026-04-17 06:31 50.92903 3.55057 33424 ft 524 kts 108°
2026-04-17 06:31 50.91859 3.60577 33770 ft 523 kts 108°
2026-04-17 06:31 50.90814 3.66095 34130 ft 522 kts 108°
2026-04-17 06:31 50.89765 3.71599 34436 ft 521 kts 108°
2026-04-17 06:32 50.88704 3.77097 34725 ft 521 kts 108°
2026-04-17 06:32 50.87639 3.82578 35029 ft 520 kts 108°
2026-04-17 06:32 50.86570 3.88064 35202 ft 523 kts 108°
2026-04-17 06:33 50.84423 3.99061 35224 ft 527 kts 108°
2026-04-17 06:33 50.82251 4.10144 35229 ft 527 kts 108°
2026-04-17 06:34 50.80070 4.21222 35213 ft 527 kts 108°
2026-04-17 06:34 50.77879 4.32276 35236 ft 526 kts 108°
2026-04-17 06:35 50.75687 4.43277 35235 ft 525 kts 108°
2026-04-17 06:35 50.73482 4.54280 35235 ft 525 kts 108°
2026-04-17 06:36 50.71279 4.65275 35234 ft 525 kts 108°
2026-04-17 06:36 50.69143 4.76296 35230 ft 525 kts 107°
2026-04-17 06:37 50.67029 4.87248 35236 ft 525 kts 107°
2026-04-17 06:37 50.64871 4.98227 35236 ft 525 kts 108°
2026-04-17 06:38 50.62625 5.09112 35236 ft 520 kts 108°
2026-04-17 06:38 50.60367 5.19927 35233 ft 519 kts 108°
2026-04-17 06:39 50.58129 5.30651 35233 ft 519 kts 108°
2026-04-17 06:39 50.55874 5.41449 35236 ft 519 kts 108°
2026-04-17 06:40 50.53613 5.52224 35234 ft 519 kts 108°
2026-04-17 06:40 50.51729 5.61157 35092 ft 512 kts 108°
2026-04-17 06:40 50.50097 5.68078 34143 ft 512 kts 114°
2026-04-17 06:41 50.48627 5.73194 33219 ft 515 kts 115°
2026-04-17 06:41 50.47144 5.78331 32407 ft 515 kts 114°
2026-04-17 06:41 50.45685 5.83457 31604 ft 515 kts 114°
2026-04-17 06:41 50.44704 5.86935 31029 ft 516 kts 114°
2026-04-17 06:42 50.43277 5.92012 30413 ft 513 kts 114°
2026-04-17 06:42 50.41846 5.97114 29764 ft 509 kts 114°
2026-04-17 06:42 50.40430 6.02165 29171 ft 503 kts 114°
2026-04-17 06:42 50.39026 6.07169 28588 ft 498 kts 114°
2026-04-17 06:43 50.37637 6.12111 28000 ft 493 kts 114°
2026-04-17 06:43 50.36258 6.17014 27429 ft 489 kts 114°
2026-04-17 06:43 50.34891 6.21862 26859 ft 485 kts 114°
2026-04-17 06:43 50.33534 6.26663 26300 ft 480 kts 114°
2026-04-17 06:44 50.32186 6.31426 25737 ft 476 kts 114°
2026-04-17 06:44 50.30850 6.36136 25188 ft 472 kts 114°
2026-04-17 06:44 50.29518 6.40822 24642 ft 468 kts 114°
2026-04-17 06:44 50.28214 6.45403 24092 ft 465 kts 114°
2026-04-17 06:45 50.26903 6.49998 23535 ft 461 kts 114°
2026-04-17 06:45 50.25600 6.54556 22919 ft 456 kts 114°
2026-04-17 06:45 50.24312 6.59054 22388 ft 450 kts 114°
2026-04-17 06:45 50.23039 6.63489 21853 ft 445 kts 115°
2026-04-17 06:46 50.21778 6.67877 21314 ft 440 kts 115°
2026-04-17 06:46 50.20531 6.72208 20792 ft 435 kts 115°
2026-04-17 06:46 50.19291 6.76504 20249 ft 431 kts 115°
2026-04-17 06:46 50.18084 6.80678 19723 ft 427 kts 115°
2026-04-17 06:47 50.16866 6.84885 19192 ft 423 kts 115°
2026-04-17 06:47 50.15659 6.89047 18666 ft 420 kts 114°
2026-04-17 06:47 50.14459 6.93177 18076 ft 416 kts 114°
2026-04-17 06:47 50.13269 6.97268 17526 ft 411 kts 114°
2026-04-17 06:48 50.12093 7.01304 16987 ft 406 kts 114°
2026-04-17 06:48 50.10927 7.05295 16458 ft 402 kts 114°
2026-04-17 06:48 50.09773 7.09242 15926 ft 398 kts 114°
2026-04-17 06:48 50.08637 7.13121 15394 ft 388 kts 114°
2026-04-17 06:49 50.07523 7.16917 14874 ft 384 kts 115°
2026-04-17 06:49 50.06426 7.20649 14369 ft 383 kts 115°
2026-04-17 06:49 50.05319 7.24410 13828 ft 380 kts 115°
2026-04-17 06:49 50.04235 7.28089 13415 ft 366 kts 115°
2026-04-17 06:50 50.03201 7.31592 13059 ft 347 kts 115°
2026-04-17 06:50 50.02215 7.34924 12725 ft 331 kts 115°
2026-04-17 06:50 50.01274 7.38105 12186 ft 319 kts 115°
2026-04-17 06:50 50.00366 7.41167 11876 ft 307 kts 115°
2026-04-17 06:51 49.99474 7.44172 11722 ft 306 kts 115°
2026-04-17 06:51 49.98585 7.47165 11598 ft 305 kts 115°
2026-04-17 06:51 49.97693 7.50161 11437 ft 304 kts 115°
2026-04-17 06:51 49.96805 7.53143 11296 ft 303 kts 115°
2026-04-17 06:52 49.95921 7.56106 11168 ft 302 kts 115°
2026-04-17 06:52 49.95035 7.59070 10998 ft 302 kts 115°
2026-04-17 06:52 49.94151 7.62029 10660 ft 300 kts 115°
2026-04-17 06:52 49.93273 7.64963 10331 ft 298 kts 115°
2026-04-17 06:53 49.92414 7.67831 10019 ft 296 kts 115°
2026-04-17 06:53 49.91550 7.70711 9709 ft 294 kts 115°
2026-04-17 06:53 49.90688 7.73578 9412 ft 292 kts 116°
2026-04-17 06:53 49.89834 7.76417 9130 ft 290 kts 115°
2026-04-17 06:54 49.88982 7.79247 8815 ft 288 kts 115°
2026-04-17 06:54 49.88136 7.82052 8523 ft 286 kts 116°
2026-04-17 06:54 49.87330 7.84860 8235 ft 284 kts 111°
2026-04-17 06:54 49.87010 7.87859 7998 ft 284 kts 87°
2026-04-17 06:55 49.87464 7.90817 7717 ft 282 kts 70°
2026-04-17 06:55 49.88168 7.93659 7418 ft 282 kts 69°
2026-04-17 06:55 49.88927 7.96458 7124 ft 281 kts 67°
2026-04-17 06:55 49.89692 7.99244 6836 ft 279 kts 68°
2026-04-17 06:56 49.90414 8.01983 6695 ft 277 kts 69°
2026-04-17 06:56 49.91112 8.04777 6688 ft 278 kts 70°
2026-04-17 06:56 49.91779 8.07600 6591 ft 278 kts 71°
2026-04-17 06:56 49.92446 8.10418 6335 ft 278 kts 71°
2026-04-17 06:57 49.93122 8.13231 5951 ft 278 kts 70°
2026-04-17 06:57 49.93798 8.16034 5505 ft 278 kts 70°
2026-04-17 06:57 49.94461 8.18804 5057 ft 270 kts 70°
2026-04-17 06:57 49.95107 8.21496 4635 ft 261 kts 70°
2026-04-17 06:58 49.95728 8.24089 4262 ft 251 kts 70°
2026-04-17 06:58 49.96328 8.26591 3930 ft 241 kts 70°
2026-04-17 06:58 49.96902 8.28985 3608 ft 232 kts 71°
2026-04-17 06:58 49.97456 8.31291 3329 ft 224 kts 71°
2026-04-17 06:59 49.97989 8.33520 3051 ft 215 kts 71°
2026-04-17 06:59 49.98492 8.35619 2778 ft 199 kts 71°
2026-04-17 06:59 49.98957 8.37563 2505 ft 186 kts 71°
2026-04-17 06:59 49.99400 8.39414 2246 ft 179 kts 71°
2026-04-17 07:00 49.99824 8.41183 2008 ft 170 kts 71°
2026-04-17 07:00 50.00220 8.42841 1788 ft 162 kts 71°
2026-04-17 07:00 50.00601 8.44436 1564 ft 153 kts 70°
2026-04-17 07:00 50.00964 8.45949 1365 ft 146 kts 70°
2026-04-17 07:01 50.01313 8.47409 1174 ft 143 kts 70°
2026-04-17 07:01 50.01674 8.48845 1001 ft 143 kts 69°
2026-04-17 07:01 50.02016 8.50290 806 ft 142 kts 70°
2026-04-17 07:01 50.02349 8.51728 630 ft 140 kts 69°
2026-04-17 07:02 50.02692 8.53144 426 ft 140 kts 70°
2026-04-17 07:02 50.03023 8.54538 359 ft 129 kts 70°
2026-04-17 07:02 50.03290 8.55655 357 ft 91 kts 70°
2026-04-17 07:02 50.03463 8.56381 360 ft 52 kts 69°
2026-04-17 07:03 50.03543 8.56713 358 ft 14 kts 69°
2026-04-17 07:03 50.03576 8.56853 360 ft 14 kts 69°
2026-04-17 07:03 50.03632 8.56988 360 ft 15 kts 46°
2026-04-17 07:03 50.03715 8.57101 361 ft 16 kts 40°
2026-04-17 07:04 50.03807 8.57218 361 ft 17 kts 39°
2026-04-17 07:04 50.03903 8.57343 361 ft 18 kts 41°
2026-04-17 07:04 50.03971 8.57475 359 ft 14 kts 65°
2026-04-17 07:04 50.04006 8.57619 359 ft 15 kts 70°
2026-04-17 07:05 50.04037 8.57753 360 ft 10 kts 70°
2026-04-17 07:05 50.04083 8.57823 360 ft 10 kts
2026-04-17 07:05 50.04156 8.57789 356 ft 12 kts 338°
2026-04-17 07:05 50.04243 8.57736 361 ft 15 kts 339°
2026-04-17 07:06 50.04344 8.57678 359 ft 16 kts 340°
2026-04-17 07:06 50.04430 8.57621 360 ft 13 kts 333°
2026-04-17 07:06 50.04516 8.57552 358 ft 12 kts 333°
2026-04-17 07:06 50.04564 8.57514 359 ft 6 kts 333°
2026-04-17 07:07 50.04599 8.57512 360 ft 5 kts 30°
2026-04-17 07:07 50.04623 8.57559 360 ft 7 kts 59°
2026-04-17 07:07 50.04644 8.57636 361 ft 9 kts 69°
2026-04-17 07:07 50.04667 8.57733 357 ft 9 kts 70°
2026-04-17 07:08 50.04676 8.57768 361 ft 0 kts 69°
2026-04-17 07:10 50.04676 8.57769 352 ft 1 kts 69°
2026-04-17 07:10 50.04692 8.57831 361 ft 9 kts 69°
2026-04-17 07:10 50.04729 8.57918 361 ft 11 kts 42°
2026-04-17 07:11 50.04781 8.57994 361 ft 9 kts 49°
2026-04-17 07:11 50.04808 8.58084 359 ft 7 kts 68°
2026-04-17 07:11 50.04826 8.58097 361 ft 2 kts
2026-04-17 07:11 50.04850 8.58092 360 ft 5 kts 348°
2026-04-17 07:12 50.04881 8.58077 357 ft 3 kts 341°
2026-04-17 07:12 50.04896 8.58069 360 ft 0 kts 340°